This is the latest recevied weather packets stored in our database for station/object K5NWZ. If no packets are shown the sender has not sent any weather packets the latest 10 day(s).
| Time | Temp. | Humidity | Pressure | Rain* | Wind** | Luminosity | Snow |
|---|---|---|---|---|---|---|---|
| 1777907008 | 15.56° C | 36% | 1017.6 hPa | 0 mm | - | 217 W/m² | - |
| 1777906706 | 15.56° C | 37% | 1017.6 hPa | 0 mm | - | 240 W/m² | - |
| 1777906401 | 15.56° C | 38% | 1017.6 hPa | 0 mm | - | 299 W/m² | - |
| 1777906098 | 14.44° C | 44% | 1017.8 hPa | 0 mm | - | 362 W/m² | - |
| 1777905795 | 13.89° C | 47% | 1017.8 hPa | 0 mm | - | 209 W/m² | - |
| 1777905493 | 13.33° C | 51% | 1017.7 hPa | 0 mm | - | 215 W/m² | - |
| 1777905189 | 13.33° C | 49% | 1017.7 hPa | 0 mm | - | 203 W/m² | - |
| 1777904887 | 13.33° C | 51% | 1017.8 hPa | 0 mm | - | 206 W/m² | - |
| 1777904584 | 13.33° C | 52% | 1017.7 hPa | 0 mm | - | 217 W/m² | - |
| 1777904280 | 13.33° C | 49% | 1017.8 hPa | 0 mm | - | 249 W/m² | - |
| 1777903978 | 12.22° C | 49% | 1017.8 hPa | 0 mm | - | 267 W/m² | - |
| 1777903674 | 11.11° C | 56% | 1018 hPa | 0 mm | - | 239 W/m² | - |
| 1777903370 | 10.56° C | 57% | 1017.8 hPa | 0 mm | - | 136 W/m² | - |
| 1777903067 | 10° C | 58% | 1018 hPa | 0 mm | - | 120 W/m² | - |
| 1777902763 | 10° C | 57% | 1017.8 hPa | 0 mm | - | 120 W/m² | - |
| 1777902461 | 9.44° C | 56% | 1018 hPa | 0 mm | - | 121 W/m² | - |
| 1777902157 | 8.89° C | 57% | 1017.8 hPa | 0 mm | - | 122 W/m² | - |
| 1777901856 | 8.89° C | 60% | 1018 hPa | 0 mm | - | 120 W/m² | - |
| 1777901553 | 8.33° C | 60% | 1018.1 hPa | 0 mm | - | 114 W/m² | - |
| 1777901250 | 7.78° C | 63% | 1018 hPa | 0 mm | - | 95 W/m² | - |
| 1777900948 | 7.78° C | 64% | 1018.2 hPa | 0 mm | - | 79 W/m² | - |
| 1777900645 | 7.78° C | 67% | 1018.2 hPa | 0 mm | - | 70 W/m² | - |
| 1777900342 | 7.78° C | 68% | 1018.1 hPa | 0 mm | - | 72 W/m² | - |
| 1777900039 | 7.22° C | 69% | 1018.1 hPa | 0 mm | - | 73 W/m² | - |
| 1777899734 | 7.22° C | 70% | 1018.1 hPa | 0 mm | - | 61 W/m² | - |
* Rain latest hour (hover to see other rain measurements)
** Current wind speed in m/s (hover to see current wind gust speed)